NOAA 16 DEB, 41256

Orbit data source: Space-Track

NOAA 16 DEB, 41256 is space debris in SSO originally from a launch on Thu, 21 Sep 2000 UTC launched from the Air Force Western Test Range (AFWTR). Debris objects in space refer to the collection of defunct objects orbiting the Earth. Examples of debris include non-operational satellites, rocket bodies, and fragments generated from explosions, collisions, or faulty payload assembly.

Loading next visibility...
Identifier
41256, 2000-055FG
Orbit
SSO
Country
Flag of USUS
Related business
Manufacturer
Unknown
Mission
Spacecraft
Bus & Motor
Unknown
Mass
Unknown
Launch date (UTC)
2000-09-21 (26 years ago)
Launch vehicle
Unknown
Launch site
Air Force Western Test Range (AFWTR)
Object type
Payload
Rocket body
Debris
Shape & HBR
Unknown shape, 0.1 m
Radar Cross Section
Small (<0.1 m²)

Expand to show TLE details & history
Last TLE update: 17 hours ago

TLE from 17 hours ago
0 NOAA 16 DEB
1 41256U 00055FG  26126.52841766  .00008681  00000-0  19498-2 0  9990
2 41256  99.0871  31.1385 0011507 284.6998  75.2921 14.56743086538113
Epoch: 2026-05-06T12:40Z
TLE epoch observation values (Epoch: 2026-05-06T12:40:55.285Z)
Latitude
-0.00012°
Longitude
-23.47945°
Altitude
704.601 km
Speed
7.505 km/s
True Right ascension
02h 04m 33s
True Declination
0° 00' 00"
Sunlit
Object was in daylight at epoch
Visualization orbit readout
Latitude
Unknown
Longitude
Unknown
Altitude
Unknown
Speed
Unknown
Apparent Right ascension
Unknown
Apparent Declination
Unknown
Sunlit
N/A
Visualization observer readout
Local Sidereal Time
13:54:31
Azimuth
Unknown
Elevation
Unknown
Doppler factor
Unknown
Orbital elements
Apogee altitude
708.984 km
Perigee altitude
692.693 km
Semi-major axis
7,078.975 km
Eccentricity
0.00115
Inclination
99.0871°
RAAN
31.1385°
Arg. of periapsis
284.6998°
True anomaly
75.41969°
Mean anomaly
75.2921°
Eccentric anomaly
75.35589°
Mean motion
3.64408 °/min
Orbital period
98.79 mins
BSTAR
0.0019498
Loading maneuver chart data...
Computing Atmospheric mass density...
Loading historical data...
Loading historical data...
Loading historical data...
Loading historical data...
Loading historical data...
Loading historical data...
Loading historical data...

Documentation

Showing up to 5 results
|